This is the latest recevied weather packets stored in our database for station/object K0SDS. If no packets are shown the sender has not sent any weather packets the latest 1 day(s).
| Time | Temp. | Humidity | Pressure | Rain* | Wind** | Luminosity | Snow |
|---|---|---|---|---|---|---|---|
| 1778014466 | 12.22° C | 77% | 1011.6 hPa | 0 mm | 0 m/s | 108 W/m² | - |
| 1778014162 | 11.67° C | 78% | 1011.6 hPa | 0 mm | 0.45 m/s, 82° | 93 W/m² | - |
| 1778013860 | 11.67° C | 77% | 1011.6 hPa | 0 mm | 0.45 m/s, 74° | 96 W/m² | - |
| 1778013557 | 11.67° C | 76% | 1011.7 hPa | 0 mm | 0.89 m/s, 8° | 114 W/m² | - |
| 1778013253 | 11.67° C | 76% | 1011.7 hPa | 0 mm | 0 m/s | 141 W/m² | - |
| 1778012949 | 11.67° C | 76% | 1011.8 hPa | 0 mm | 0 m/s | 133 W/m² | - |
| 1778012646 | 11.67° C | 77% | 1011.8 hPa | 0 mm | 0.45 m/s, 58° | 151 W/m² | - |
| 1778012342 | 11.67° C | 75% | 1012.3 hPa | 0 mm | 0.89 m/s, 54° | 151 W/m² | - |
| 1778012040 | 11.67° C | 78% | 1011.9 hPa | 0 mm | 0 m/s | 150 W/m² | - |
| 1778011738 | 11.11° C | 76% | 1012.1 hPa | 0 mm | 0.89 m/s, 339° | 150 W/m² | - |
| 1778011434 | 11.67° C | 77% | 1011.9 hPa | 0 mm | 0 m/s | 119 W/m² | - |
| 1778011130 | 11.11° C | 76% | 1011.9 hPa | 0 mm | 0 m/s | 117 W/m² | - |
| 1778010828 | 11.11° C | 73% | 1011.7 hPa | 0 mm | 0.89 m/s, 48° | 132 W/m² | - |
| 1778010524 | 11.11° C | 73% | 1012.1 hPa | 0 mm | 0.45 m/s, 45° | 121 W/m² | - |
| 1778010222 | 11.11° C | 77% | 1012.2 hPa | 0 mm | 0 m/s | 116 W/m² | - |
| 1778009917 | 11.11° C | 75% | 1012.1 hPa | 0 mm | 0.89 m/s, 4° | 116 W/m² | - |
| 1778009615 | 11.11° C | 76% | 1012.1 hPa | 0 mm | 0.45 m/s, 96° | 137 W/m² | - |
| 1778009313 | 11.11° C | 78% | 1012 hPa | 0 mm | 1.34 m/s, 9° | 117 W/m² | - |
| 1778009011 | 11.67° C | 77% | 1012.1 hPa | 0 mm | 0.89 m/s, 341° | 119 W/m² | - |
| 1778008708 | 11.67° C | 79% | 1012.3 hPa | 0 mm | 0.45 m/s, 100° | 143 W/m² | - |
| 1778008407 | 11.67° C | 78% | 1012.1 hPa | 0 mm | 0.89 m/s, 34° | 211 W/m² | - |
| 1778008103 | 11.11° C | 74% | 1012.2 hPa | 0 mm | 1.34 m/s, 66° | 229 W/m² | - |
| 1778007798 | 11.11° C | 77% | 1012.1 hPa | 0 mm | 1.34 m/s, 46° | 283 W/m² | - |
| 1778007495 | 11.11° C | 80% | 1012 hPa | 0 mm | 0.45 m/s, 65° | 236 W/m² | - |
| 1778007191 | 11.11° C | 83% | 1012.2 hPa | 0 mm | 0.45 m/s, 78° | 196 W/m² | - |
* Rain latest hour (hover to see other rain measurements)
** Current wind speed in m/s (hover to see current wind gust speed)